Theta_e
331 338 345 347 345 347 349 346 345 344 343 343 342 342 342 340 339 338 338 338 337 337 337 337 336 340 341 342 340 339 339 339 338 338 338 339 341 340 339 339 339 332 337
333 340 343 346 347 348 350 348 347 345 344 344 343 343 343 342 342 341 341 340 339 339 339 339 338 338 339 341 341 340 338 338 337 336 337 337 337 337 336 336 335 334 338
331 341 343 345 348 349 349 348 347 345 344 344 344 344 345 345 345 345 343 342 342 342 342 343 342 342 340 340 340 341 338 338 338 336 334 337 336 334 335 336 336 336 338
335 341 341 343 347 349 349 347 347 345 344 346 347 345 343 344 344 345 343 341 343 343 343 343 342 340 339 339 339 340 339 336 335 336 338 337 336 332 335 337 338 337 337
338 341 342 342 347 349 349 348 347 346 347 346 345 343 341 341 340 339 338 337 337 337 336 336 335 334 332 332 333 333 333 332 329 333 337 337 338 335 337 338 338 338 339
339 342 341 343 346 348 348 347 347 346 347 345 343 340 339 337 334 333 332 332 332 332 331 330 329 327 326 327 328 326 324 323 324 333 334 335 336 335 337 338 339 340 340
338 341 341 342 345 346 346 346 346 345 343 341 339 336 333 332 329 328 327 327 326 326 326 325 325 323 323 322 320 320 317 315 319 321 322 324 327 323 331 335 335 338 338
336 339 340 336 338 341 342 342 341 339 338 337 334 331 329 328 325 325 324 323 323 323 323 322 320 319 317 316 315 314 313 312 311 312 313 314 313 318 321 324 328 331 333
336 333 335 337 335 333 335 336 336 336 335 333 330 327 326 323 322 322 321 320 321 322 319 319 317 315 313 313 312 312 310 309 310 311 309 311 314 317 319 321 322 323 326
332 330 331 332 334 335 332 328 329 329 329 328 326 323 321 320 320 320 320 319 319 318 317 316 314 312 310 310 310 309 307 306 309 310 311 311 312 316 319 320 321 322 322
329 330 329 328 330 332 332 325 322 323 323 322 320 318 316 314 314 313 316 316 316 316 315 314 311 309 306 306 307 306 305 310 309 310 310 308 312 315 317 319 320 321 321
323 327 329 329 329 328 324 323 323 320 319 318 317 314 311 310 311 311 312 313 312 313 312 310 308 305 305 309 310 306 309 309 309 309 309 307 311 314 316 317 319 320 321
320 321 323 325 324 322 319 320 318 317 317 315 313 311 310 309 309 309 309 308 308 307 307 307 307 309 307 308 308 308 307 307 309 309 307 305 309 312 315 316 317 318 319
316 316 317 319 318 317 315 315 314 312 311 309 309 309 309 309 308 307 307 307 308 308 307 308 308 308 307 306 306 306 306 306 307 308 307 303 306 311 313 315 316 317 317
312 313 313 314 314 312 311 311 310 309 308 308 308 308 308 307 307 307 307 307 307 307 307 307 307 306 306 306 305 305 304 305 306 307 308 301 304 308 310 312 313 314 315
310 310 311 310 310 309 308 308 307 308 308 308 308 308 308 308 307 306 306 306 306 306 306 307 306 306 306 305 304 304 304 304 305 304 306 306 302 304 307 309 309 311 312
309 310 308 308 308 306 305 306 306 307 307 307 307 308 307 307 307 306 306 305 305 306 305 305 304 305 305 304 303 303 303 303 303 303 305 306 306 302 303 304 306 307 308
309 308 308 305 305 304 304 305 305 306 306 307 306 307 307 306 306 306 305 304 305 305 304 304 304 303 303 303 303 303 303 302 302 302 303 304 305 304 302 301 302 302 305
307 307 307 305 304 304 304 304 305 305 305 305 305 305 306 306 306 305 305 305 304 304 303 302 302 302 302 302 300 301 302 301 302 300 302 302 302 303 304 300 298 298 301
305 306 306 305 305 305 305 304 304 304 304 304 304 304 306 305 305 305 303 303 303 303 302 301 301 300 300 299 297 298 300 301 302 301 302 301 301 302 302 302 302 301 299
304 303 304 304 305 303 303 302 302 301 301 302 303 304 305 305 304 304 304 303 303 302 301 301 300 298 299 298 299 300 299 299 300 300 301 301 300 301 300 300 300 300 299
303 302 303 303 303 303 302 302 301 301 301 303 303 303 303 304 304 304 303 302 302 300 300 299 299 297 298 297 297 296 296 297 298 298 300 299 300 299 299 299 299 298 297
302 302 301 302 302 301 301 302 301 302 301 300 300 300 302 304 305 303 302 302 301 301 299 298 298 298 296 295 295 296 294 293 293 298 297 298 298 298 298 299 298 297 296
301 303 302 302 302 302 302 301 298 297 296 298 299 300 302 303 303 302 302 301 300 299 298 298 298 298 297 294 295 294 295 294 292 291 296 297 297 296 297 298 297 296 295
302 302 302 302 302 301 301 301 299 299 299 300 299 301 301 302 302 301 301 301 299 298 299 297 297 296 296 295 294 293 293 293 294 292 290 293 295 297 297 297 296 296 295
301 303 303 302 301 301 301 301 300 299 299 298 299 300 300 301 301 301 300 299 299 298 298 298 297 296 295 294 294 293 293 293 292 291 290 291 290 294 295 295 295 294 294
Wind_Speed
11 16 18 19 19 19 19 18 17 15 15 14 13 11 10 9 8 8 7 6 5 4 4 4 5 6 7 5 5 5 6 6 6 7 6 6 6 6 5 5 5 7 6
15 16 16 18 18 17 17 16 16 16 15 14 12 11 10 9 9 9 8 7 6 5 4 4 5 6 7 7 6 4 4 5 6 6 5 5 5 5 5 6 6 9 7
16 16 18 15 16 16 18 16 15 15 14 13 11 11 11 11 13 12 11 8 7 6 4 4 6 8 7 7 7 7 5 5 5 5 2 2 2 4 5 6 7 7 8
16 15 17 15 16 16 18 16 15 14 13 13 14 12 11 8 10 11 11 9 9 9 9 10 10 9 8 8 8 9 10 7 6 3 5 2 2 2 5 6 8 8 8
16 15 15 16 15 17 18 18 16 14 13 14 14 13 11 8 10 10 10 9 7 8 7 8 9 8 6 5 5 7 6 4 3 5 4 4 5 1 7 8 9 8 6
16 15 14 14 15 14 16 17 18 17 15 14 14 13 11 11 11 11 10 10 9 9 8 8 8 7 7 7 8 7 6 4 5 4 4 1 6 7 9 10 10 10 8
16 14 16 16 16 17 17 16 14 14 15 14 13 13 13 13 11 11 10 10 9 9 9 9 8 8 7 6 6 6 6 4 4 3 4 4 5 8 9 10 10 10 10
16 11 10 11 12 11 11 11 11 13 12 13 13 14 14 13 12 11 10 10 9 9 9 8 8 7 6 5 5 5 5 5 2 2 3 3 6 9 9 10 10 12 12
15 10 9 11 10 10 9 9 10 12 13 14 15 15 13 12 11 11 10 9 9 9 8 8 8 7 5 4 5 5 5 4 3 2 4 3 8 9 9 9 9 10 11
15 10 9 8 9 9 9 9 11 11 12 13 13 13 11 10 9 10 9 9 9 9 7 7 7 6 4 4 4 4 4 3 3 2 2 4 7 8 9 9 9 10 10
14 15 12 11 11 12 13 10 10 10 11 12 13 12 12 8 9 10 8 10 9 9 8 7 6 5 3 2 3 4 5 2 3 2 2 6 7 7 7 8 9 9 9
19 19 16 15 16 14 10 13 12 11 10 10 10 12 7 8 7 7 9 10 9 8 8 7 5 3 3 2 1 4 2 2 2 2 1 6 6 6 7 7 8 8 9
18 15 17 16 16 15 11 10 7 7 7 7 11 10 8 7 8 6 6 6 6 5 4 4 3 1 2 3 3 3 3 3 2 2 3 5 6 6 6 6 7 7 8
21 21 19 18 16 15 10 9 10 8 8 7 9 10 8 6 7 6 5 6 5 4 5 3 2 2 1 2 3 4 4 4 2 2 3 4 5 5 5 5 7 8 9
19 20 20 19 17 14 14 10 10 10 9 10 9 10 8 7 7 7 6 5 5 4 4 3 3 3 2 2 2 3 4 4 4 2 2 4 4 4 5 7 7 8 10
20 21 20 20 18 16 14 14 11 10 10 9 9 9 10 7 7 7 6 5 5 4 4 3 3 2 1 2 3 3 4 4 3 3 1 3 3 3 5 7 8 9 11
20 19 21 20 18 17 17 14 11 10 10 10 9 11 10 9 9 8 6 6 5 4 5 4 4 3 2 2 4 3 3 3 3 1 1 0 4 4 5 6 6 8 11
19 20 20 16 19 19 17 13 11 11 10 9 9 9 10 10 10 8 7 6 5 4 4 3 3 2 2 2 3 3 2 2 2 1 0 1 2 2 3 2 4 7 12
20 20 21 21 22 21 18 14 13 13 10 9 9 9 12 11 10 7 6 6 7 5 4 3 3 2 2 2 4 3 2 2 1 1 2 2 3 3 1 2 2 4 11
21 21 20 18 20 19 13 12 10 10 10 9 9 9 13 10 11 8 6 7 7 5 5 3 4 2 0 2 4 3 2 1 2 3 1 3 3 2 3 4 6 6 11
20 21 22 22 21 16 13 12 11 11 10 10 9 13 14 12 12 10 7 8 7 6 6 6 3 3 2 3 3 1 2 1 4 2 2 2 2 2 4 4 6 6 7
23 21 22 23 21 19 14 12 9 10 10 10 10 12 11 12 13 11 10 8 9 6 7 6 5 3 2 3 1 0 1 3 3 1 1 3 3 4 4 7 8 8 7
21 24 23 22 23 20 18 13 8 10 7 8 9 8 11 14 13 12 11 9 9 7 7 7 6 6 4 1 2 2 2 1 3 2 1 3 5 5 6 9 8 9 8
22 18 21 22 22 21 23 18 20 16 13 10 12 10 10 14 14 12 12 10 9 7 7 7 6 5 4 4 2 2 3 3 0 4 2 3 6 8 9 6 8 8 8
17 19 19 21 22 22 23 21 17 16 12 8 9 14 13 12 13 13 12 12 10 7 8 9 8 7 4 4 4 3 2 2 1 3 5 5 8 6 7 8 8 8 7
14 15 17 20 21 21 22 22 23 21 17 12 14 12 10 10 10 13 12 11 10 9 10 9 8 8 6 4 4 4 4 3 5 4 5 7 8 9 8 9 8 6 6
Wind_Direction
182 163 176 177 177 178 175 172 168 167 166 163 161 157 156 158 157 157 155 148 141 138 127 113 99 86 73 82 84 78 74 76 68 58 51 52 51 47 45 27 343 326 3
156 167 175 175 177 180 178 172 170 171 169 168 169 168 171 173 175 174 168 166 169 168 155 138 113 97 83 77 77 77 79 87 81 71 56 122 88 47 20 1 344 343 322
162 168 173 177 177 182 171 170 172 173 173 173 181 190 193 199 208 199 175 178 184 189 185 148 113 102 90 83 73 73 85 68 55 67 32 306 38 39 4 348 338 333 330
163 169 176 172 179 182 168 167 172 174 177 170 151 141 130 125 116 109 125 108 94 108 98 90 91 83 74 73 72 68 73 58 39 3 241 296 303 75 326 324 324 327 331
166 173 175 169 176 180 169 169 172 178 178 167 158 143 125 131 112 108 108 113 115 107 96 96 91 89 82 69 64 59 64 60 27 264 283 279 301 27 313 306 296 312 326
169 177 157 174 170 167 165 168 172 178 181 156 144 130 143 137 135 133 129 125 119 116 111 105 105 104 98 93 89 77 57 36 277 291 290 313 282 9 309 303 302 303 299
172 173 172 183 179 178 181 182 168 153 146 141 137 137 152 147 142 139 135 129 127 124 123 119 108 100 91 88 80 78 63 37 322 314 315 321 332 331 313 306 301 304 312
171 164 159 153 151 148 149 151 147 145 146 154 156 155 156 149 146 141 135 130 132 130 120 115 109 100 90 81 67 67 58 15 255 308 310 314 17 327 325 319 318 317 313
172 165 162 161 154 143 144 150 149 153 156 158 161 156 154 147 144 140 134 133 134 126 116 111 101 94 80 73 67 48 44 19 306 346 321 313 11 333 328 326 325 317 312
179 176 173 160 157 159 154 148 149 152 155 153 148 137 133 132 134 126 122 131 129 121 121 113 101 90 78 57 45 35 12 277 341 319 316 19 338 334 329 331 329 325 322
187 187 181 174 173 176 174 156 139 142 141 130 127 130 143 153 155 159 93 128 129 130 126 114 92 75 64 86 43 8 292 350 324 328 320 21 331 332 333 332 328 325 323
193 190 186 185 185 180 177 168 171 166 170 169 168 168 168 160 159 147 124 121 125 126 123 116 101 97 261 325 223 218 309 325 296 313 351 351 335 338 340 338 332 332 331
195 191 191 188 184 182 181 175 176 178 177 175 174 173 169 160 159 167 150 156 153 171 161 166 164 107 44 327 325 322 317 295 303 296 68 354 345 348 357 356 354 355 350
199 196 191 190 186 187 181 186 179 180 180 175 177 175 172 172 172 172 171 163 166 171 158 165 148 128 210 283 313 316 308 304 303 295 96 15 354 360 15 17 12 3 355
207 201 194 191 190 187 188 184 181 184 184 177 174 180 184 175 177 172 168 170 162 164 170 169 161 176 190 258 287 291 291 296 300 301 319 84 9 18 14 13 14 7 1
210 206 195 196 192 186 189 186 180 183 181 177 179 181 188 183 177 175 170 167 166 174 166 172 178 181 205 266 264 260 277 280 289 309 312 124 80 38 20 15 9 10 3
209 203 200 194 190 189 190 185 182 184 183 182 182 181 183 187 182 174 171 169 167 164 167 171 178 188 221 255 261 257 262 264 301 300 278 70 142 136 17 6 15 11 2
214 204 197 192 190 189 190 186 184 185 186 184 180 176 185 189 185 180 171 170 163 171 183 185 185 180 217 261 282 284 266 304 327 151 178 343 357 320 150 37 13 2 351
211 206 201 194 193 191 188 185 185 187 188 186 179 177 183 186 187 183 178 164 166 170 181 190 173 191 212 265 293 292 286 303 175 142 169 299 338 317 342 121 316 297 340
205 205 200 195 195 188 182 184 183 182 188 186 184 183 179 184 183 187 170 168 172 174 169 184 183 152 128 318 287 270 289 175 150 155 263 274 317 311 319 310 326 330 329
207 202 198 192 191 181 181 180 183 188 181 185 187 186 181 181 182 185 177 172 181 181 179 179 169 172 152 336 277 151 134 110 150 6 115 338 305 293 315 315 320 321 318
201 199 195 195 188 186 181 182 181 180 196 189 184 186 181 178 183 183 178 181 186 171 175 183 192 160 124 355 23 292 112 156 180 156 353 330 266 318 283 302 309 308 308
206 201 196 192 186 187 180 173 166 157 169 186 191 177 183 184 185 185 182 181 181 181 180 185 193 190 159 128 40 340 171 146 321 167 212 298 289 299 296 308 300 304 303
209 200 197 191 189 185 179 179 177 178 179 192 182 180 181 185 186 182 182 182 183 186 179 182 190 186 171 165 145 58 52 42 207 301 183 284 300 303 307 291 305 306 302
204 198 195 191 189 186 185 184 182 189 189 171 176 171 179 182 185 183 183 181 185 186 186 181 180 182 191 172 165 153 141 133 196 236 291 312 313 307 304 294 300 295 296
209 195 192 192 191 187 187 187 187 189 183 172 172 177 179 177 181 188 184 186 185 186 185 184 182 180 181 174 173 173 181 180 176 205 243 284 300 304 308 293 289 289 292